Погода в Садикабаде

Пакистан     28°17′37″N   70°05′41″E
темп.,
°C
ветер,
м/с
пор.,
м/с
влажн.,
%
обл.,
%
осадки,
мм/ч
давл.,
гПа
погр.,
м
25 февраля, чт
чт2523:00+21в23220 0.0 100824
02:00+20ссв45230 0.0 100841
05:00+20св45260 0.0 100758
08:00+21всв34240 0.0 1011117
11:00+31вюв22140 0.0 1011618
14:00+36юз45120 0.0 10072437
17:00+36ююз56110 0.0 10053756
20:00+27ююз45160 0.0 100546
26 февраля, пт
пт2623:00+25ююз34180 0.0 100527
02:00+24ююз46230 0.0 100479
05:00+21зюз45260 0.0 100458
08:00+25зюз57200 0.0 1006214
11:00+35з69130 0.0 10062177
14:00+36зсз1012130 0.0 10042938
17:00+33зсз711150 0.0 10032712
20:00+25зсз34250 0.0 100529
27 февраля, сб
сб2723:00+24з715250 0.0 1006324
02:00+24зсз9172245 0.0 1006597
05:00+20зсз7152626 0.0 1006391
08:00+21зсз814230 0.0 1008500
11:00+29зсз1215120 0.0 10081519
14:00+31зсз1114120 0.0 10062368
17:00+30зсз811140 0.0 10041970
20:00+22ссз45160 0.0 100669
28 февраля, вс
вс2823:00+19сз34140 0.0 100731
02:00+15зсз23170 0.0 100723
05:00+15зсз34170 0.0 100724
08:00+19с22140 0.0 101172
11:00+28всв4590 0.0 1012936
14:00+31св1260 0.0 10092205
17:00+31ююз1260 0.0 10072288
20:00+17зсз12300 0.0 100923
1 марта, пн
пн123:00+17с23200 0.0 101023
02:00+15ссз23220 0.0 101023
05:00+17с45220 0.0 101052
08:00+19св35140 0.0 1013113
11:00+29всв2280 0.0 1014703
14:00+33зюз2350 0.0 10112281
17:00+33з2350 0.0 10102618
20:00+18ссв12160 0.0 101124